• In Portugal
  • List of Countries
  • For 7 days
  • Water Temperature
  • Satellite Maps
  • Weather Map
  • Weather Widgets
  • user-avatar
    Login

    Hourly Weather Salyan

    Today, 20 September, Thursday

    Time Temperature Precipitation Wind Pressure Humidity
    00:00 +21°C° 0 mm 1 mps 650 mmHg 78%
    01:00 +20°C° 0 mm 1 mps 650 mmHg 77%
    02:00 +19°C° 0 mm 2 mps 650 mmHg 76%
    03:00 +19°C° 0 mm 2 mps 650 mmHg 74%
    04:00 +19°C° 0 mm 2 mps 650 mmHg 73%
    05:00 +19°C° 0 mm 2 mps 650 mmHg 71%
    06:00 +22°C° 0 mm 1 mps 651 mmHg 64%
    07:00 +24°C° 0 mm 1 mps 652 mmHg 58%
    08:00 +27°C° 0 mm 1 mps 652 mmHg 51%
    09:00 +28°C° 0 mm 1 mps 653 mmHg 48%
    10:00 +29°C° 0 mm 2 mps 653 mmHg 45%
    11:00 +31°C° 0 mm 2 mps 653 mmHg 42%
    12:00 +31°C° 0 mm 2 mps 653 mmHg 43%
    13:00 +31°C° 0 mm 3 mps 653 mmHg 44%
    14:00 +31°C° 0 mm 3 mps 652 mmHg 45%
    15:00 +29°C° 0.2 mm 2 mps 652 mmHg 54%
    16:00 +27°C° 0.2 mm 2 mps 651 mmHg 63%
    17:00 +26°C° 0.2 mm 1 mps 651 mmHg 71%
    18:00 +25°C° 0.3 mm 1 mps 651 mmHg 74%
    19:00 +23°C° 0.3 mm 1 mps 651 mmHg 77%
    20:00 +22°C° 0.3 mm 1 mps 652 mmHg 80%
    21:00 +22°C° 0.1 mm 1 mps 652 mmHg 80%
    22:00 +22°C° 0.1 mm 1 mps 652 mmHg 80%
    23:00 +21°C° 0.1 mm 1 mps 652 mmHg 80%

    Tomorrow, 21 September, Friday

    Time Temperature Precipitation Wind Pressure Humidity
    00:00 +21°C° 0 mm 1 mps 652 mmHg 80%
    01:00 +21°C° 0 mm 1 mps 651 mmHg 80%
    02:00 +21°C° 0 mm 1 mps 651 mmHg 80%
    03:00 +21°C° 0.1 mm 1 mps 651 mmHg 80%
    04:00 +21°C° 0.1 mm 1 mps 651 mmHg 80%
    05:00 +21°C° 0.1 mm 1 mps 651 mmHg 80%
    06:00 +21°C° 0.7 mm 1 mps 652 mmHg 82%
    07:00 +21°C° 0.7 mm 1 mps 652 mmHg 84%
    08:00 +21°C° 0.7 mm 1 mps 653 mmHg 86%
    09:00 +21°C° 1.6 mm 1 mps 653 mmHg 86%
    10:00 +21°C° 1.6 mm 1 mps 653 mmHg 86%
    11:00 +21°C° 1.6 mm 1 mps 653 mmHg 87%
    12:00 +23°C° 0.5 mm 1 mps 653 mmHg 78%
    13:00 +24°C° 0.5 mm 1 mps 653 mmHg 69%
    14:00 +26°C° 0.5 mm 1 mps 653 mmHg 61%
    15:00 +25°C° 0.3 mm 1 mps 653 mmHg 65%
    16:00 +24°C° 0.3 mm 1 mps 653 mmHg 69%
    17:00 +23°C° 0.3 mm 1 mps 652 mmHg 73%
    18:00 +23°C° 0.7 mm 1 mps 652 mmHg 77%
    19:00 +22°C° 0.7 mm 1 mps 653 mmHg 81%
    20:00 +21°C° 0.7 mm 1 mps 653 mmHg 85%
    21:00 +21°C° 1.5 mm 1 mps 653 mmHg 86%
    22:00 +20°C° 1.5 mm 1 mps 653 mmHg 86%
    23:00 +20°C° 1.5 mm 1 mps 653 mmHg 87%

    Day after tomorrow, 22 September, Saturday

    Time Temperature Precipitation Wind Pressure Humidity
    00:00 +20°C° 1 mm 1 mps 652 mmHg 86%
    01:00 +20°C° 1 mm 1 mps 652 mmHg 86%
    02:00 +20°C° 1 mm 1 mps 652 mmHg 86%
    03:00 +20°C° 0.7 mm 1 mps 652 mmHg 85%
    04:00 +20°C° 0.7 mm 1 mps 652 mmHg 85%
    05:00 +20°C° 0.7 mm 1 mps 652 mmHg 84%
    06:00 +20°C° 0.3 mm 1 mps 653 mmHg 82%
    07:00 +21°C° 0.3 mm 1 mps 653 mmHg 80%
    08:00 +22°C° 0.3 mm 1 mps 654 mmHg 78%
    09:00 +23°C° 0.1 mm 2 mps 654 mmHg 72%
    10:00 +25°C° 0.1 mm 2 mps 655 mmHg 66%
    11:00 +27°C° 0.1 mm 2 mps 655 mmHg 60%
    12:00 +27°C° 0.2 mm 2 mps 655 mmHg 60%
    13:00 +27°C° 0.2 mm 2 mps 654 mmHg 60%
    14:00 +27°C° 0.2 mm 2 mps 654 mmHg 59%
    15:00 +26°C° 0.1 mm 2 mps 654 mmHg 64%
    16:00 +25°C° 0.1 mm 1 mps 653 mmHg 68%
    17:00 +24°C° 0.1 mm 1 mps 653 mmHg 73%
    18:00 +23°C° 0.1 mm 1 mps 653 mmHg 75%
    19:00 +22°C° 0.1 mm 1 mps 654 mmHg 76%
    20:00 +21°C° 0.1 mm 1 mps 654 mmHg 78%
    21:00 +21°C° 0 mm 1 mps 654 mmHg 77%
    22:00 +21°C° 0 mm 1 mps 654 mmHg 76%
    23:00 +21°C° 0 mm 1 mps 654 mmHg 75%

    23 September, Sunday

    Time Temperature Precipitation Wind Pressure Humidity
    00:00 +20°C° 0 mm 1 mps 654 mmHg 75%
    01:00 +20°C° 0 mm 1 mps 653 mmHg 74%
    02:00 +20°C° 0 mm 1 mps 653 mmHg 74%
    03:00 +20°C° 0 mm 1 mps 653 mmHg 74%
    04:00 +20°C° 0 mm 1 mps 653 mmHg 74%
    05:00 +20°C° 0 mm 1 mps 653 mmHg 74%
    06:00 +22°C° 0 mm 1 mps 654 mmHg 70%
    07:00 +24°C° 0 mm 1 mps 655 mmHg 67%
    08:00 +24°C° 0 mm 0 mps 655 mmHg 63%
    09:00 +27°C° 0 mm 1 mps 655 mmHg 61%
    10:00 +28°C° 0 mm 1 mps 656 mmHg 59%
    11:00 +29°C° 0 mm 2 mps 656 mmHg 56%
    12:00 +28°C° 0.4 mm 2 mps 655 mmHg 59%
    13:00 +28°C° 0.4 mm 2 mps 654 mmHg 62%
    14:00 +28°C° 0.4 mm 2 mps 654 mmHg 64%
    15:00 +27°C° 0.4 mm 2 mps 653 mmHg 70%
    16:00 +26°C° 0.4 mm 1 mps 653 mmHg 75%
    17:00 +25°C° 0.4 mm 1 mps 652 mmHg 81%
    18:00 +24°C° 0.2 mm 1 mps 653 mmHg 83%
    19:00 +23°C° 0.2 mm 1 mps 653 mmHg 85%
    20:00 +22°C° 0.2 mm 1 mps 653 mmHg 87%
    21:00 +22°C° 0.5 mm 1 mps 653 mmHg 87%
    22:00 +21°C° 0.5 mm 1 mps 653 mmHg 87%
    23:00 +21°C° 0.5 mm 1 mps 653 mmHg 88%

    24 September, Monday

    Time Temperature Precipitation Wind Pressure Humidity
    00:00 +21°C° 0.3 mm 1 mps 652 mmHg 88%
    01:00 +20°C° 0.3 mm 1 mps 652 mmHg 88%
    02:00 +20°C° 0.3 mm 1 mps 651 mmHg 88%
    03:00 +20°C° 0 mm 1 mps 651 mmHg 88%
    04:00 +20°C° 0 mm 1 mps 651 mmHg 87%
    05:00 +20°C° 0 mm 1 mps 651 mmHg 87%
    06:00 +21°C° 0 mm 1 mps 652 mmHg 81%
    07:00 +23°C° 0 mm 1 mps 653 mmHg 76%
    08:00 +25°C° 0 mm 1 mps 654 mmHg 71%
    09:00 +26°C° 0 mm 1 mps 654 mmHg 67%
    10:00 +27°C° 0 mm 2 mps 654 mmHg 62%
    11:00 +28°C° 0 mm 2 mps 654 mmHg 58%
    12:00 +28°C° 0.1 mm 2 mps 654 mmHg 60%
    13:00 +28°C° 0.1 mm 2 mps 653 mmHg 62%
    14:00 +28°C° 0.1 mm 3 mps 652 mmHg 65%
    15:00 +27°C° 0.1 mm 2 mps 652 mmHg 71%
    16:00 +26°C° 0.1 mm 2 mps 652 mmHg 76%
    17:00 +24°C° 0.1 mm 2 mps 651 mmHg 82%
    18:00 +24°C° 0 mm 1 mps 652 mmHg 85%
    19:00 +23°C° 0 mm 1 mps 652 mmHg 88%
    20:00 +22°C° 0 mm 1 mps 652 mmHg 91%
    21:00 +21°C° 0 mm 1 mps 652 mmHg 91%
    22:00 +21°C° 0 mm 1 mps 652 mmHg 90%
    23:00 +21°C° 0 mm 1 mps 652 mmHg 89%

    25 September, Tuesday

    Time Temperature Precipitation Wind Pressure Humidity
    00:00 +21°C° 0 mm 1 mps 651 mmHg 88%
    01:00 +20°C° 0 mm 1 mps 651 mmHg 87%
    02:00 +20°C° 0 mm 1 mps 650 mmHg 86%
    03:00 +20°C° 0 mm 1 mps 650 mmHg 85%
    04:00 +20°C° 0 mm 1 mps 650 mmHg 84%
    05:00 +20°C° 0 mm 1 mps 650 mmHg 83%
    06:00 +21°C° 0 mm 1 mps 651 mmHg 77%
    07:00 +23°C° 0 mm 1 mps 652 mmHg 72%
    08:00 +25°C° 0 mm 1 mps 653 mmHg 66%
    09:00 +26°C° 0 mm 2 mps 653 mmHg 62%
    10:00 +28°C° 0 mm 2 mps 653 mmHg 58%
    11:00 +29°C° 0 mm 3 mps 653 mmHg 55%
    12:00 +29°C° 0.1 mm 3 mps 653 mmHg 56%
    13:00 +29°C° 0.1 mm 3 mps 652 mmHg 57%
    14:00 +29°C° 0.1 mm 3 mps 651 mmHg 59%
    15:00 +27°C° 0.1 mm 3 mps 651 mmHg 65%
    16:00 +26°C° 0.1 mm 2 mps 650 mmHg 72%
    17:00 +25°C° 0.1 mm 2 mps 650 mmHg 79%
    18:00 +24°C° 0 mm 1 mps 650 mmHg 82%
    19:00 +23°C° 0 mm 1 mps 650 mmHg 85%
    20:00 +20°C° 0 mm 0 mps 650 mmHg 87%
    21:00 +22°C° 0 mm 1 mps 650 mmHg 88%
    22:00 +21°C° 0 mm 1 mps 650 mmHg 88%
    23:00 +21°C° 0 mm 1 mps 650 mmHg 88%
    Show more